Track STARLINK-1837 now! 10-day predictions STARLINK-1837 is classified as:
1 47128U 20088G 22177.44854225 -.00000535 00000-0 -17015-4 0 9996 2 47128 53.0524 232.0671 0001506 68.2681 291.8468 15.06396643 88307